Lakeland Linder Regional Airport
KLAL : now visible

Airfield :











YOU CAN JOIN US ON...

 
LOGIN :

Register | Disclaimer

   EN    FR    IT 

 









Legend :    VFR   Marginal VFR   IFR   Intensive IFR   Very Intensive IFR
Visi :
Ceiling :
>= 8 km
>= 3000ft
5 to 8 km
1000 to 3000 ft
1500m to 5 km
500 to 1000 ft
800 to 1500m
200 to 500 ft
< 800m
< 200 ft
Symbols :   Thunderstorms  Fog  Heavy snow  Heavy precipitations  Wind > 20 kt






- Airport Elevation : 142 ft


KLAL - Lakeland Linder Regional

CURRENT METAR :
  • 181850Z 09016G22KT 10SM BKN047 32/21 A2997

EXPIRED METARs :
  • 181750Z 09015G22KT 10SM SCT048 31/21 A2999
  • 181650Z 08011G21KT 10SM SCT043 31/21 A3000
  • 181550Z 09016G19KT 10SM SCT040 30/22 A3001
  • 181450Z 10013G21KT 10SM BKN033 29/21 A3002

TAF KLAL
Valid from the 18 at 18:00 until the 19 at 18:00 UTC


181726Z 1818/1918 09015G25KT P6SM FEW035 SCT250
FM190400 08010KT P6SM FEW250
FM191500 09015G25KT P6SM BKN035
KZMA FIR / North America



MET'MAP, your aeronautical weather chart ! - Copyright ORBIFLY December 2007 - Disclaimer

ORBIFLY MET'MAP TEAM :

Programming & Development : Alexandra Zaïnal
Original concept : Baudouin d'Aumeries
Technical & hardware support : Manuel Goepfert
Assistance : Marc-Olivier Méhu




SOURCES & CREDITS :

   NOAA       Earth
Advisory